This demonstration page uses our WeatherBlox Daily Observations layout. Learn more.

Left ArrowRight Arrow

34.74481, -87.66753

Hourly Observations for May 23, 2017

Temp ( °F °C ) Dew Point ( °F °C ) Humidity (%) Winds ( mph kmh ) Pressure ( in mb ) Visibility ( mi km ) Precip ( " mm )
12:53 am 00:53 Cloudy with Light Rain 67 19.4 62 16.7 84 84 SSE 7 11 29.88 1012 10 16 0.01 0.25
1:30 am 01:30 Cloudy with Heavy Rain 65 18.3 62 16.7 90 90 ESE 3 6 29.85 1011 3 4 0.33 8.38
1:40 am 01:40 Cloudy with Heavy Rain 65 18.3 62 16.7 90 90 E 3 6 29.85 1011 4 6 0.42 10.67
1:53 am 01:53 Cloudy with Heavy Rain 65 18.3 63 17.2 93 93 Calm 29.86 1011 3 5 0.52 13.21
2:53 am 02:53 Cloudy with Light Rain 65 18.3 63 17.2 93 93 Calm 29.83 1010 6 10 0.07 1.78
3:04 am 03:04 Cloudy with Rain 65 18.3 63 17.2 93 93 Calm 29.83 1010 3 4 0.04 1.02
3:13 am 03:13 Cloudy with Heavy Rain 65 18.3 63 17.2 93 93 W 3 6 29.83 1010 3 5 0.08 2.03
3:16 am 03:16 Cloudy with Heavy Rain 65 18.3 63 17.2 93 93 W 3 6 29.83 1010 3 4 0.12 3.05
3:25 am 03:25 Cloudy with Rain 65 18.3 63 17.2 93 93 NW 5 7 29.83 1010 3 5 0.15 3.81
3:32 am 03:32 Cloudy with Light Rain 65 18.3 63 17.2 93 93 WNW 6 9 29.83 1010 4 6 0.16 4.06
3:53 am 03:53 Cloudy with Light Rain 65 18.3 63 17.2 93 93 NW 3 6 29.81 1010 7 11 0.20 5.08
4:17 am 04:17 Cloudy 65 18.3 62 16.7 90 90 N 3 6 29.83 1010 7 11 0.00 0.03
4:53 am 04:53 Cloudy with Light Rain 64 17.8 61 16.1 90 90 NW 5 7 29.81 1010 5 8 0.03 0.76
5:41 am 05:41 Partly Cloudy 63 17.2 60 15.6 90 90 Calm 29.80 1009 10 16 0.00 0.03
5:53 am 05:53 Mostly Sunny 63 17.2 60 15.6 90 90 Calm 29.80 1009 10 16 0.00 0.03
6:38 am 06:38 Mostly Cloudy 64 17.8 61 16.1 90 90 Calm 29.80 1009 10 16 0.00 0.00
6:53 am 06:53 Cloudy 64 17.8 62 16.7 93 93 W 3 6 29.80 1009 10 16 0.00 0.00
7:53 am 07:53 Mostly Cloudy 66 18.9 62 16.7 87 87 Calm 29.79 1009 8 13 0.00 0.00
8:37 am 08:37 Mostly Cloudy 67 19.4 62 16.7 84 84 VRB 3 6 29.80 1009 10 16 0.00 0.00
8:53 am 08:53 Cloudy 68 20 62 16.7 81 81 Calm 29.79 1009 10 16 0.00 0.00
9:38 am 09:38 Partly Cloudy 69 20.6 62 16.7 78 78 Calm 29.80 1009 10 16 0.00 0.00
9:53 am 09:53 Mostly Sunny 70 21.1 62 16.7 76 76 Calm 29.78 1008 10 16 0.00 0.00
10:49 am 10:49 Mostly Cloudy 72 22 61 16 69 69 Calm 29.77 1008 10 16 0.00 0.00
10:53 am 10:53 Mostly Cloudy 72 22.2 62 16.7 71 71 Calm 29.76 1008 10 16 0.00 0.00
11:35 am 11:35 Mostly Cloudy 74 23.3 62 16.7 67 67 NNW 3 6 29.77 1008 10 16 0.00 0.00
11:53 am 11:53 Partly Cloudy 74 23.3 62 16.7 67 67 VRB 6 9 29.75 1008 10 16 0.00 0.00
12:53 pm 12:53 Mostly Sunny 76 24.4 60 15.6 58 58 Calm 29.72 1006 10 16 0.00 0.00
1:53 pm 13:53 Mostly Sunny 80 26.7 58 14.4 47 47 NW 5 7 29.70 1006 10 16 0.00 0.00
2:53 pm 14:53 Mostly Cloudy 81 27.2 60 15.6 49 49 NNW 6 9 29.69 1005 10 16 0.00 0.00
3:53 pm 15:53 Partly Cloudy 78 25.6 60 15.6 54 54 NW 9 15 29.67 1005 10 16 0.00 0.00
4:53 pm 16:53 Mostly Cloudy 77 25 59 15 54 54 W 10 17 29.67 1005 10 16 0.00 0.00
5:53 pm 17:53 Sunny 75 23.9 58 14.4 55 55 W 8 13 29.65 1004 10 16 0.00 0.00
6:53 pm 18:53 Mostly Sunny 73 22.8 60 15.6 64 64 W 6 9 29.65 1004 10 16 0.00 0.00
7:53 pm 19:53 Clear 71 21.7 62 16.7 73 73 WSW 5 7 29.65 1004 10 16 0.00 0.00
8:53 pm 20:53 Clear 69 20.6 62 16.7 78 78 SW 3 6 29.66 1004 10 16 0.00 0.00
9:53 pm 21:53 Mostly Cloudy 68 20 62 16.7 81 81 S 5 7 29.67 1005 10 16 0.00 0.00
10:53 pm 22:53 Cloudy with Light Rain 67 19.4 63 17.2 87 87 SW 8 13 29.66 1004 7 11 0.04 1.02
11:53 pm 23:53 Mostly Cloudy 67 19.4 63 17.2 87 87 Calm 29.65 1004 10 16 0.01 0.25

Powered by AerisWeather